Погода в Кунтики

Погода в Кунтики : погода сейчас, прогноз погоды и архив. Всё, что Вы хотите узнать о погоде в Кунтики!

Хотите узнать прогноз погоды в Кунтики? Тогда Вам сюда: Погода в Кунтики

Поиск расширенной информации на нашем сайте:

Другие новости

Новости СМИ2

Главная страница сайта

Новости сайта

03.07.2017

Напоминаем, что на нашем специализированном сайте Метеоцентр.Азия вы можете получить высокодетализированные автоматические прогнозы погоды по пунктам России, СНГ и мира в авиационном формате (включающие направление и скорость ветра, видимость, явления погоды, количество и форму облачности, нижнюю и верхнюю границу облачности).


Погода в Кунтики - сегодня

Время (UTC), дата Ветер
(°,м/с) 
Видим.   Явления Облачность Т
(°С)
Тd
(°С)
f(%) Тe
(°С)
Pmin
(гПа)
dP
(гПа)
Po
(мм)
O2
(г/м3)
Тmin Tmax R s Состояние
почвы
21 20.02.18 160 (Ю) 20000 м  {снег}  9/0 средняя, верхняя 
[Ac lent|Ci fib]
-11.5 -13.6 84 -11  1024.9  761  321           
00 21.02.18 160 (Ю) 20000 м  {снег}  8/0 средняя, верхняя 
[Ac trans|Ci fib]
-12.4 -14.7 83 -14  1024.2  -0.7  760  322  -12.4    0.5  54  равномерный
сухой снег
100% 
03 21.02.18 140 (ЮВ) 20000 м    10/0 средняя, верхняя 
[Ac trans|Cc]
-13.5 -15.9 82 -16  1023.7  -0.5  760  323  -13.9         
06 21.02.18 130 (ЮВ) 20000 м    10/0 верхняя 
[Cs]
-8.3 -13 69 -10  1022.1  -1.4  759  316           
09 21.02.18 120 (ЮВ) 20000 м    10/0 средняя, верхняя 
[As trans|Cs]
-6.1 -13.1 58 -8  1020.2  -1.8  757  313           
12 21.02.18 110 (В) 20000 м    10/0 средняя, верхняя 
[Ac cast|Cc]
-6 -12.9 58 -9  1018.2  -1.9  756  313    -5.2       
15 21.02.18 110 (В) 20000 м    8/0 верхняя 
[Cs]
-7.1 -12.6 65 -10  1016.2  -2.1  754  313           
18 21.02.18 100 (В) 20000 м    10/0 верхняя 
[Cs]
-8 -14.3 60 -12  1013.7  -2.4  752  314           
21 21.02.18 100 (В) 20000 м    10/0 средняя 
[As trans]
-7.2 -13.7 60 -10  1011.4  -2.3  751  312           
00 22.02.18 110 (В) 20000 м    10/0 средняя 
[As op]
-7.4 -13.2 63 -10  1009.9  -1.5  750  312  -8      51  равномерный
сухой снег
100% 
06 22.02.18 140 (ЮВ) 2000 м  ливневой снег  10/8 300 м кучево-дожд., средняя 
[Cb cap|As op]
-7.2 -9.2 86 -7  1009.7  0.2  749  311           
09 22.02.18 240 (ЮЗ) 20000 м  в посл. час ливневой снег  10/3 300 м кучево-дожд., верхняя 
[Cb calv|Cc]
-7.4 -10.6 78 -11  1010.9  1.2  750  312           
12 22.02.18 230 (ЮЗ) 20000 м  {ливн. осадки}  3/0 верхняя 
[Ci fib]
-10.1 -13.2 78 -13  1013.4  2.4  752  316    -6.3     
15 22.02.18 200 (Ю) 20000 м    3/0 верхняя 
[Ci fib]
-14.1 -15.9 86 -14  1014.9  1.3  753  321           
18 22.02.18 190 (Ю) 20000 м    ясно 
-16.8 -18.8 84 -19  1016.2  1.1  754  325           
21 22.02.18 190 (Ю) 20000 м    ясно 
-18.6 -20.8 83 -21  1016.5  0.2  754  328           
00 23.02.18 190 (Ю) 20000 м    3/0 верхняя 
[Ci sp]
-19.9 -22.4 80 -20  1016.2  -0.3  754  329  -20.9      59  равномерный
сухой снег
100% 
03 23.02.18 тихо ()   20000 м    8/0 верхняя 
[Ci fib]
-22.2 -25 78 -22  1016.3  -0.1  754  332  -23.7         
06 23.02.18 тихо ()   4000 м  слаб. ливневой снег  9/1 600 м кучево-дожд., верхняя 
[Cb cap|Ci fib]
-11 -13 85 -11  1016  0.3  754  318           
09 23.02.18 290 (З) 4000 м  слаб. ливневой снег  8/3 600 м кучево-дожд., верхняя 
[Cb cap|Ci fib]
-10.6 -14.1 75 -12  1016.5  0.5  754  318           
12 23.02.18 200 (Ю) 20000 м  {ливн. осадки}  6/1 600 м кучево-дожд., средняя, верхняя 
[Cb cap|Ac lent|Ci fib]
-12.4 -15.6 77 -12  1017.1  0.5  755  320    -8.9  0.3     
15 23.02.18 180 (Ю) 20000 м    3/0 верхняя 
[Ci fib]
-17.4 -19.6 83 -20  1017.8  0.5  755  327           
18 23.02.18 190 (Ю) 20000 м    3/0 верхняя 
[Ci fib]
-21 -23.6 80 -24  1018  755  331           
21 23.02.18 190 (Ю) 20000 м    4/0 верхняя 
[Ci fib]
-19.8 -22.3 80 -23  1018.1  0.2  755  330           
00 24.02.18 190 (Ю) 20000 м    1/0 верхняя 
[Ci fib]
-22.9 -25.9 76 -23  1018.4  0.1  755  334  -22.9      59  равномерный
сухой снег
100% 
Время (UTC), дата Ветер
(°,м/с) 
Видим.   Явления Облачность Т
(°С)
Тd
(°С)
f(%) Тe
(°С)
Pmin
(гПа)
dP
(гПа)
Po
(мм)
O2
(г/м3)
Тmin Tmax R s Состояние
почвы

Для получения пояснительной информации подведите курсор к названию столбца.

ПОГОДА в Кунтики - архив

Всё, что Вы хотите узнать о погоде в Кунтики - удобно и подробно!

Выберите нужную дату (начиная с 1 января 2015* года) и нажмите кнопку "Найти".
Будут отображены архивные сводки погоды по пункту Кунтики, начиная с указанной даты.


Отображать данные в формате CSV (для использования в таблицах Excel)


Внимание! Наш архив погоды предназначен исключительно для личного некоммерческого использования в познавательных целях. Если Вам необходимы официальные справки о состоянии погоды (для производственных, юридических, коммерческих и т.п. целей), обращайтесь в органы Росгидромета.

*Примечание: данная дата относится к архиву по метеостанциям СССР (Россия, СНГ, Балтия).
Архив по метеостанциям Зарубежной Европы и Азии (кроме Китая) хранится 10 дней, по другим регионам земного шара (Китай, Африка, Америка, Австралия, Океания) - 1 день.

Кунтики - район местоположения метеостанции


Название, широта, долгота, высота метеостанции:
Кунтики 58.4°ш. 76.4°д. 81 м над ур. моря [Российская Федерация]

Дополнительная информация

В oтличие oт бoльшинства пoгoдных сайтoв мы публикуем пoдрoбную метеoинфoрмацию в детальнoм прoфессиoнальнoм фoрмате.

Характеристики температуры и влажнoсти вoздуха измеряются на высoте 2 м в тени вдали oт зданий и деревьев.
Скoрoсть ветра измеряется на высoте 10 м (на урoвне рoста челoвека скoрoсть ветра ниже в 1.5-2 раза). Если метеoстанция нахoдится в гoрoде или в лесу, тo скoрoсть ветра занижена на 2-4 м/с пo сравнению с oткрытым местoм. Скoрoсть ветра над акватoриями крупных рек и oзёр, а также на вершинах хoлмoв на 2-5 м/с выше, чем в oбычных услoвиях.
Атмoсфернoе давление в разных тoчках местнoсти мoжет значительнo oтличаться oт давления на метеoстанции, в зависимoсти oт услoвий рельефа (при пoдъёме на 10 м давление пoнижается примернo на 1 мм рт.ст.).